Content
SEND FEEDBACK

Daily
Averages
Monthly
Summary
Ghana

ACCRA, GHANA


Home > Africa > Ghana
Elevation: 226 feet     Latitude: 05 36N     Longitude: 000 10W

WEATHER
 
SELECT A DAY
Number of Records: 91,006;   Date Range: 7/1/96 - 8/26/14
 
SHARE

PRINT THIS DATA

[ ← Previous Day ]
WEATHER ALMANAC - APRIL 7, 2013
[ Next Day → ]
[ °C ]   °F
Weather ElementAverageHighLow
Temperature85.3 °F91.4 °F (10:52 am)80.6 °F (2:00 am)
Dewpoint76 °F78.8 °F (8:00 pm)73.4 °F (2:00 am)
Humidity73.3 %84 % (8:00 pm)55 % (1:52 pm)
Barometer29.84 in29.90 in (9:00 am)29.74 in (2:52 pm)
Wind Speed12.8 mph20.7 mph (2:52 pm)
Weather ElementAverage
Visibility6.5 mi
Wind DirectionSW (223.1 °)

Weather ElementTotal
Precipitation---
Cooling Degree Days21 (Base 65)
Growing Degree Days36 (Base 50)
Averaged from 29 records on April 7, 2013
WEATHER CONDITIONS BREAKOUT
WIND DIRECTION BREAKOUT
WEATHER BY HOUR - APRIL 7, 2013
[ °C ]   °F
Local TimeTemperatureDewpointHumidityBarometerVisibilityWind DirectionWind SpeedGust SpeedPrecipitationEventsConditions
2:00 AM80.6 °F73.4 °F79 %29.86 inWest (270°)5.8 mphClear
2:54 AM80.6 °F73.4 °F79 %29.80 inWSW (240°)6.9 mphClear
3:00 AM81.0 °F74.0 °F72 %29.83 in9.0 miWest (260°)5.8 mphClear
3:53 AM80.6 °F73.4 °F79 %29.83 inWest (270°)5.8 mphClear
5:52 AM80.6 °F73.4 °F79 %29.83 inWest (260°)6.9 mphClear
6:00 AM81.0 °F74.0 °F72 %29.85 in6.0 miWest (280°)3.5 mphScattered Clouds
7:52 AM84.2 °F75.2 °F74 %29.89 inWSW (250°)11.5 mphClear
8:51 AM86.0 °F75.2 °F70 %29.89 inWSW (250°)15.0 mphClear
9:00 AM88.0 °F76.0 °F60 %29.90 in7.0 miWSW (240°)11.5 mphPartly Cloudy
9:56 AM89.6 °F75.2 °F62 %29.89 in6.2 miWSW (240°)11.5 mphPartly Cloudy
10:52 AM91.4 °F77.0 °F63 %29.86 in6.2 miSW (220°)15.0 mphScattered Clouds
11:52 AM91.4 °F75.2 °F59 %29.83 in6.2 miSSW (200°)16.1 mphScattered Clouds
12:52 PM91.4 °F75.2 °F59 %29.80 in6.2 miSouth (190°)18.4 mphPartly Cloudy
1:52 PM91.4 °F73.4 °F55 %29.77 inSouth (180°)17.3 mphClear
2:52 PM89.6 °F75.2 °F62 %29.74 inSSW (200°)20.7 mphClear
3:56 PM87.8 °F75.2 °F66 %29.74 in6.2 miSSW (210°)20.7 mphPartly Cloudy
4:52 PM86.0 °F75.2 °F70 %29.74 in6.2 miSW (220°)17.3 mphPartly Cloudy
5:52 PM86.0 °F75.2 °F70 %29.77 inSSW (210°)17.3 mphClear
6:51 PM84.2 °F77.0 °F79 %29.80 inSW (220°)15.0 mphClear
7:30 PM84.2 °F77.0 °F79 %29.80 inSW (220°)13.8 mphClear
8:00 PM84.2 °F78.8 °F84 %29.86 in6.2 miSSW (210°)12.7 mphMostly Cloudy
8:30 PM84.2 °F78.8 °F84 %29.86 in6.2 miSSW (200°)10.4 mphScattered Clouds
9:00 PM84.2 °F78.8 °F84 %29.86 in6.2 miSSW (210°)15.0 mphScattered Clouds
9:00 PM85.0 °F78.0 °F75 %29.89 in9.0 miSSW (210°)18.4 mphPartly Cloudy
9:30 PM84.2 °F75.2 °F74 %29.86 in6.2 miSSW (200°)11.5 mphPartly Cloudy
10:00 PM84.2 °F78.8 °F84 %29.89 in6.2 miSSW (210°)13.8 mphMostly Cloudy
10:30 PM84.2 °F78.8 °F84 %29.89 in6.2 miSSW (200°)12.7 mphScattered Clouds
11:00 PM84.2 °F78.8 °F84 %29.89 in6.2 miSSW (200°)12.7 mphScattered Clouds
11:30 PM84.2 °F78.8 °F84 %29.89 in6.2 miSSW (200°)8.1 mphMostly Cloudy
Hourly data recorded from DGAA, located miles away from Accra, Ghana







STORIES FROM OUR PARTNERS